Regional Weather Roundup
Issued by NWS

Home | Current Version | Previous Version | Text Only | Print | Product List | Glossary Off
Versions: 1 2 3 4 5 6 7 8 9 10 11 12 13 14 15 16 17 18 19 20 21 22 23 24 25 26 27 28 29 30 31 32 33 34 35 36 37 38 39 40 41 42 43 44 45 46 47 48 49 50

000
ASUS43 KDTX 020101
RWRMI
MICHIGAN HOURLY REGIONAL WEATHER ROUNDUP
NATIONAL WEATHER SERVICE DETROIT/PONTIAC MI
900 PM EDT TUE SEP 01 2015

NOTE: "FAIR" INDICATES FEW OR NO CLOUDS BELOW 12,000 FEET WITH NO
SIGNIFICANT WEATHER AND/OR OBSTRUCTION TO VISIBILITY.

MIZ047>049-052>055-059>063-066>070-074>076-081>083-020200-
SOUTHEAST LOWER MICHIGAN

CITY           SKY/WX    TMP DP  RH WIND       PRES   REMARKS
ADRIAN         CLEAR     78  68  71 W3        30.07R
ALMA           PTCLDY    77  72  85 SE3       30.03R
ANN ARBOR      CLEAR     74  68  81 S3        30.05R
BAD AXE        CLEAR     72  69  91 CALM      30.04R
DETROIT CITY   CLEAR     80  70  71 S6        30.04R
DETROIT        PTCLDY    80  71  74 SE5       30.05R
FLINT          CLEAR     80  67  64 SW5       30.04R
GROSSE ILE     CLEAR     75  72  88 S6        30.03S
HILLSDALE      CLEAR     75  72  91 CALM      30.09R
HOWELL         CLEAR     78  65  64 CALM      30.05R

CITY           SKY/WX    TMP DP  RH WIND       PRES   REMARKS
JACKSON        CLEAR     75  69  81 SW5       30.06R
LAMBERTVILLE   CLEAR     79  68  68 SW5       30.06R
LANSING        PTCLDY    79  69  71 SW7       30.05R
LAPEER         FAIR      70  69  96 CALM      30.04R
MASON          CLEAR     74  67  79 CALM      30.05R
MONROE         CLEAR     75  69  81 CALM      30.04R
MT. CLEMENS    CLEAR     74  70  87 S8        30.02R HAZE
PONTIAC        PTCLDY    80  67  64 S3        30.05R
PORT HOPE        N/A     73  70  90 S6        30.02R
PORT HURON     CLEAR     72  70  94 CALM      30.04R FOG
TRI CITIES     CLEAR     79  69  71 S7        30.03R
MIDLAND        FAIR      74  71  89 CALM      30.01R
TROY           CLEAR     83  65  54 SW5       30.06R
SAGINAW HB     CLEAR     73  70  88 CALM      30.02R
$$
MIZ043>046-050>051-056>058-064>065-071>073-077>080-020200-
SOUTHWEST LOWER MICHIGAN

CITY           SKY/WX    TMP DP  RH WIND       PRES   REMARKS
BATTLE CREEK   CLEAR     77  69  76 S5        30.06R
BENTON HARBOR  CLEAR     77  72  84 SE3       30.02R
BIG RAPIDS     CLEAR     74  71  92 CALM      30.03R
COLDWATER      CLEAR     73  69  87 CALM      30.07R
FREMONT        FAIR      75  74  95 CALM      30.01S
HOLLAND        CLEAR     76  70  82 S5        30.03R
GRAND RAPIDS   PTCLDY    78  73  84 SW5       30.03R
IONIA          FAIR      80  71  74 SW5       30.03R
KALAMAZOO      CLEAR     78  70  76 S3        30.05R
LUDINGTON      CLEAR     78  73  82 S3        30.00S
MARSHALL       PTCLDY    76  68  75 CALM      30.06R
MOUNT PLEASANT CLEAR     77  71  82 CALM      30.01S
MUSKEGON       MOCLDY    77  68  73 S7        30.01S
SOUTH HAVEN    CLEAR     74  71  90 CALM      30.02S
$$
MIZ016>042-020200-
NORTHERN LOWER MICHIGAN

CITY           SKY/WX    TMP DP  RH WIND       PRES   REMARKS
ALPENA         CLEAR     70  66  87 CALM      29.99R
BEAVER ISLAND  PTCLDY    71  68  91 SW12      29.97R
BELLAIRE       CLEAR     75  70  85 CALM      29.98R
CADILLAC       CLEAR     74  70  88 SW5       30.03S
CHARLEVOIX     PTCLDY    74  70  87 S3        30.00R
FRANKFORT      PTCLDY    76  71  83 SW5       29.98R
GAYLORD        CLEAR     76  70  82 SW5       30.02R
GRAYLING       CLEAR     73  69  89 CALM      30.03R
HARBOR SPRINGS MOCLDY    73  70  88 CALM      29.98R
HOUGHTON LAKE  CLEAR     76  69  79 S6        30.03R
MANISTEE       CLEAR     77  68  73 CALM      30.00R
OSCODA         CLEAR     75  67  77 S6        30.00R
PELLSTON       PTCLDY    77  70  79 CALM      29.98R
ROGERS CITY    PTCLDY    74  69  85 CALM      29.98R
TRAVERSE CITY  PTCLDY    81  69  67 SW3       29.97R
$$
MIZ007>008-015-020200-
EASTERN UPPER MICHIGAN

CITY           SKY/WX    TMP DP  RH WIND       PRES   REMARKS
KINROSS        PTCLDY    73  70  88 S5        29.97R
MACKINAC ISLAN PTCLDY    72  66  80 S3        29.97S
NEWBERRY       CLEAR     72  69  91 SW8       29.95R
S. S. MARIE    PTCLDY    74  69  85 E3        29.96R
$$
MIZ004>006-011>014-085-020200-
CENTRAL UPPER MICHIGAN

CITY           SKY/WX    TMP DP  RH WIND       PRES   REMARKS
MANISTIQUE     CLOUDY    67  66  96 S9G16     29.94S FOG
ESCANABA       PTCLDY    72  68  88 SW3       29.92R
MENOMINEE      PTCLDY    79  68  69 SW5       29.93R
SAWYER-GWINN   MOCLDY    81  68  65 SW3       29.94R
$$
MIZ001>003-009>011-084-020200-
WESTERN UPPER MICHIGAN

CITY           SKY/WX    TMP DP  RH WIND       PRES   REMARKS
IRON MOUNTAIN  PTCLDY    76  68  76 CALM      29.94R
HOUGHTON       PTCLDY    72  68  87 W8        29.92R
IRONWOOD       PTCLDY    77  73  88 CALM      29.91S
$$

ABBREVIATIONS USED IN REMARKS
   TC - TEMPERATURE IN CELSIUS
  WCI - WIND CHILL INDEX
   HX - HEAT INDEX
  VSB - VISIBILITY




USA.gov is the U.S. government's official web portal to all federal, state and local government web resources and services.